Hrossey — VSTY6 — position and weather

sailwx.info

Track history (hours):
 
Tides and Currents Weather Stations Pressure Air Temp Water Temp Dewpoint Dewpoint Depression Visibility Wind Speed Wind Dir Waves Ship Positions

Hrossey

Operator: NorthLink Orkey & Shetland Ferries Ltd

Last reported at 2020-Jan-24 20:30 UTC. Time now 2020-Jan-25 06:34 UTC.
Position N 57°27' W 001°39'.

Length 125 m; draft 5.4 m.

Type: Ship. MMSI: 235448000.

Date/timePositionNaut miles runAvg speedWind from/ knotsBaromVisibWave heightAir tempDewpointWater temp
2020-Jan-24 20:30N 57°27' W 001°39'714.7
2020-Jan-24 20:00N 57°20' W 001°47'715.0
2020-Jan-24 19:30N 57°14' W 001°55'8 2.3
2020-Jan-24 15:57N 57°09' W 002°05'0 0.0
2020-Jan-24 14:58N 57°09' W 002°05'0 0.0
2020-Jan-24 13:58N 57°09' W 002°05'0 0.0
2020-Jan-24 11:58N 57°09' W 002°05'0 0.0
2020-Jan-24 10:58N 57°09' W 002°05'0 0.0
2020-Jan-24 10:28N 57°09' W 002°05'0 0.0
2020-Jan-24 09:58N 57°09' W 002°05'0 0.0
2020-Jan-24 07:25N 57°09' W 002°05'0 0.0
2020-Jan-24 07:00N 57°09' W 002°05'3610.3
2020-Jan-24 03:30N 57°41' W 001°37'35 1.1
2020-Jan-22 19:00N 57°10' W 002°02'2 0.5
2020-Jan-22 15:00N 57°09' W 002°05'0 0.0
2020-Jan-22 12:58N 57°09' W 002°05'0 0.0
2020-Jan-22 10:57N 57°09' W 002°05'0 0.0
2020-Jan-22 09:01N 57°09' W 002°05'0 0.0
2020-Jan-22 08:31N 57°09' W 002°05'30 6.7
2020-Jan-22 04:00N 57°34' W 001°37'611.7
2020-Jan-22 03:30N 57°40' W 001°37'73 2.8
2020-Jan-21 01:15N 58°51' W 002°18'7517.6
2020-Jan-20 21:00N 57°39' W 001°39'3313.0
2020-Jan-20 18:28N 57°09' W 002°05'0 0.0
2020-Jan-20 16:58N 57°09' W 002°05'0 0.0
2020-Jan-20 14:58N 57°09' W 002°05'0 0.0
2020-Jan-20 13:28N 57°09' W 002°05'0 0.0
2020-Jan-20 11:58N 57°09' W 002°05'0 0.0
2020-Jan-20 10:58N 57°09' W 002°05'0 0.0
2020-Jan-20 09:28N 57°09' W 002°05'0 0.0
2020-Jan-20 08:58N 57°09' W 002°05'0 0.0
2020-Jan-20 07:01N 57°09' W 002°05'5 5.3
2020-Jan-20 06:01N 57°12' W 001°57'714.2
2020-Jan-20 05:30N 57°18' W 001°50'815.9
2020-Jan-20 05:00N 57°25' W 001°44'100 3.6
2020-Jan-19 01:00N 59°01' W 002°42'714.2
2020-Jan-19 00:30N 59°01' W 002°55'30 9.7
2020-Jan-18 21:28N 58°35' W 002°30'5221.9
2020-Jan-18 19:04N 57°46' W 001°53'2119.6
2020-Jan-18 18:00N 57°26' W 001°43'1122.2
2020-Jan-18 17:30N 57°16' W 001°54'10 9.5
2020-Jan-18 16:29N 57°09' W 002°05'0 0.0
2020-Jan-18 15:29N 57°09' W 002°05'0 0.0
2020-Jan-18 14:59N 57°09' W 002°05'0 0.0
2020-Jan-18 13:29N 57°09' W 002°05'0 0.0
2020-Jan-18 10:29N 57°09' W 002°05'0 0.0
2020-Jan-18 09:59N 57°09' W 002°05'19 5.4
2020-Jan-18 06:30N 57°23' W 001°43'1223.8
2020-Jan-18 06:00N 57°35' W 001°42'9323.1
2020-Jan-18 02:00N 59°00' W 002°50'4 4.0
2020-Jan-18 00:53N 58°60' W 002°58'0 0.1
2020-Jan-18 00:00N 58°60' W 002°58'16 0.7
2020-Jan-17 02:07N 59°04' W 002°28'11413.2
2020-Jan-16 17:31N 57°11' W 001°56'610.8
2020-Jan-16 16:58N 57°09' W 002°05'0 0.0
2020-Jan-16 13:58N 57°09' W 002°05'0 0.0
2020-Jan-16 12:58N 57°09' W 002°05'0 0.0
2020-Jan-16 12:28N 57°09' W 002°05'0 0.0
2020-Jan-16 11:58N 57°09' W 002°05'0 0.0
2020-Jan-16 10:59N 57°09' W 002°05'0 0.0
2020-Jan-16 09:30N 57°09' W 002°05'5 4.7
2020-Jan-16 08:30N 57°11' W 001°58'10918.6
2020-Jan-16 02:38N 58°58' W 002°39'321.4
2020-Jan-16 02:30N 58°60' W 002°44'8 5.7
2020-Jan-16 01:10N 58°60' W 002°58'17 0.7
2020-Jan-15 01:09N 59°06' W 002°27'1210.5
2020-Jan-15 00:00N 59°00' W 002°48'  
Track history (hours):
 
Tides and Currents Weather Stations Pressure Air Temp Water Temp Dewpoint Dewpoint Depression Visibility Wind Speed Wind Dir Waves Ship Positions

Hrossey

Operator: NorthLink Orkey & Shetland Ferries Ltd

Last reported at 2020-Jan-24 20:30 UTC. Time now 2020-Jan-25 06:34 UTC.
Position N 57°27' W 001°39'.

Length 125 m; draft 5.4 m.

Type: Ship. MMSI: 235448000.

Date/timePositionNaut miles runAvg speedWind from/ knotsBaromVisibWave heightAir tempDewpointWater temp
2020-Jan-24 20:30N 57°27' W 001°39'714.7
2020-Jan-24 20:00N 57°20' W 001°47'715.0
2020-Jan-24 19:30N 57°14' W 001°55'8 2.3
2020-Jan-24 15:57N 57°09' W 002°05'0 0.0
2020-Jan-24 14:58N 57°09' W 002°05'0 0.0
2020-Jan-24 13:58N 57°09' W 002°05'0 0.0
2020-Jan-24 11:58N 57°09' W 002°05'0 0.0
2020-Jan-24 10:58N 57°09' W 002°05'0 0.0
2020-Jan-24 10:28N 57°09' W 002°05'0 0.0
2020-Jan-24 09:58N 57°09' W 002°05'0 0.0
2020-Jan-24 07:25N 57°09' W 002°05'0 0.0
2020-Jan-24 07:00N 57°09' W 002°05'3610.3
2020-Jan-24 03:30N 57°41' W 001°37'35 1.1
2020-Jan-22 19:00N 57°10' W 002°02'2 0.5
2020-Jan-22 15:00N 57°09' W 002°05'0 0.0
2020-Jan-22 12:58N 57°09' W 002°05'0 0.0
2020-Jan-22 10:57N 57°09' W 002°05'0 0.0
2020-Jan-22 09:01N 57°09' W 002°05'0 0.0
2020-Jan-22 08:31N 57°09' W 002°05'30 6.7
2020-Jan-22 04:00N 57°34' W 001°37'611.7
2020-Jan-22 03:30N 57°40' W 001°37'73 2.8
2020-Jan-21 01:15N 58°51' W 002°18'7517.6
2020-Jan-20 21:00N 57°39' W 001°39'3313.0
2020-Jan-20 18:28N 57°09' W 002°05'0 0.0
2020-Jan-20 16:58N 57°09' W 002°05'0 0.0
2020-Jan-20 14:58N 57°09' W 002°05'0 0.0
2020-Jan-20 13:28N 57°09' W 002°05'0 0.0
2020-Jan-20 11:58N 57°09' W 002°05'0 0.0
2020-Jan-20 10:58N 57°09' W 002°05'0 0.0
2020-Jan-20 09:28N 57°09' W 002°05'0 0.0
2020-Jan-20 08:58N 57°09' W 002°05'0 0.0
2020-Jan-20 07:01N 57°09' W 002°05'5 5.3
2020-Jan-20 06:01N 57°12' W 001°57'714.2
2020-Jan-20 05:30N 57°18' W 001°50'815.9
2020-Jan-20 05:00N 57°25' W 001°44'100 3.6
2020-Jan-19 01:00N 59°01' W 002°42'714.2
2020-Jan-19 00:30N 59°01' W 002°55'30 9.7
2020-Jan-18 21:28N 58°35' W 002°30'5221.9
2020-Jan-18 19:04N 57°46' W 001°53'2119.6
2020-Jan-18 18:00N 57°26' W 001°43'1122.2
2020-Jan-18 17:30N 57°16' W 001°54'10 9.5
2020-Jan-18 16:29N 57°09' W 002°05'0 0.0
2020-Jan-18 15:29N 57°09' W 002°05'0 0.0
2020-Jan-18 14:59N 57°09' W 002°05'0 0.0
2020-Jan-18 13:29N 57°09' W 002°05'0 0.0
2020-Jan-18 10:29N 57°09' W 002°05'0 0.0
2020-Jan-18 09:59N 57°09' W 002°05'19 5.4
2020-Jan-18 06:30N 57°23' W 001°43'1223.8
2020-Jan-18 06:00N 57°35' W 001°42'9323.1
2020-Jan-18 02:00N 59°00' W 002°50'4 4.0
2020-Jan-18 00:53N 58°60' W 002°58'0 0.1
2020-Jan-18 00:00N 58°60' W 002°58'16 0.7
2020-Jan-17 02:07N 59°04' W 002°28'11413.2
2020-Jan-16 17:31N 57°11' W 001°56'610.8
2020-Jan-16 16:58N 57°09' W 002°05'0 0.0
2020-Jan-16 13:58N 57°09' W 002°05'0 0.0
2020-Jan-16 12:58N 57°09' W 002°05'0 0.0
2020-Jan-16 12:28N 57°09' W 002°05'0 0.0
2020-Jan-16 11:58N 57°09' W 002°05'0 0.0
2020-Jan-16 10:59N 57°09' W 002°05'0 0.0
2020-Jan-16 09:30N 57°09' W 002°05'5 4.7
2020-Jan-16 08:30N 57°11' W 001°58'10918.6
2020-Jan-16 02:38N 58°58' W 002°39'321.4
2020-Jan-16 02:30N 58°60' W 002°44'8 5.7
2020-Jan-16 01:10N 58°60' W 002°58'17 0.7
2020-Jan-15 01:09N 59°06' W 002°27'1210.5
2020-Jan-15 00:00N 59°00' W 002°48'  

Dump ship's entire track history